Regional Weather Roundup
Issued by NWS

Home | Current Version | Previous Version | Graphics & Text | Print | Product List | Glossary On
Versions: 1 2 3 4 5 6 7 8 9 10 11 12 13 14 15 16 17 18 19 20 21 22 23 24 25 26 27 28 29 30 31 32 33 34 35 36 37 38 39 40 41 42 43 44 45 46 47 48 49 50
000
ASUS43 KLOT 292121
RWRIL

ILLINOIS REGIONAL WEATHER ROUNDUP
NATIONAL WEATHER SERVICE CHICAGO/ROMEOVILLE IL
400 PM CDT MON JUN 29 2015

NOTE: "FAIR" INDICATES FEW OR NO CLOUDS BELOW 12,000 FEET WITH NO
SIGNIFICANT WEATHER AND/OR OBSTRUCTIONS TO VISIBILITY.

* THESE STATIONS ARE NOT UNDER NWS QUALITY CONTROL. THEY ALSO MAY NOT
  REPORT WEATHER SUCH AS PRECIPITATION OR FOG.

ILZ001-002-007-009-015-016-024-292200-
NORTHWEST ILLINOIS

CITY           SKY/WX    TMP DP  RH WIND       PRES   REMARKS
MOLINE         SUNNY     80  65  59 W9        29.81F HX  82
STERLING*      MOSUNNY   81  66  61 W12G20    29.79F HX  83
SAVANNA*       MOSUNNY   80  61  52 W7        29.79F HX  81
$$

ILZ003-004-008-010-011-017-018-292200-
NORTH CENTRAL ILLINOIS

CITY           SKY/WX    TMP DP  RH WIND       PRES   REMARKS
ROCKFORD       PTSUNNY   73  64  73 SW3       29.81S
FREEPORT*      CLOUDY    77  62  61 W9G16     29.81F
ROCHELLE*      PTSUNNY   75  65  70 W10       29.80F
DE KALB*       LGT RAIN  69  61  76 N6        29.82S
PERU*          PTSUNNY   77  62  58 W10G16    29.80F
$$

ILZ005-006-012>014-019>023-292200-
NORTHEAST ILLINOIS

CITY           SKY/WX    TMP DP  RH WIND       PRES   REMARKS
CHICAGO-OHARE  TSTM      67  64  90 SW9       29.80R FOG
CHICAGO-MIDWAY LGT RAIN  73  64  73 SE5       29.80S
AURORA         LGT RAIN  69  63  81 W7        29.82R
LANSING*       PTSUNNY   71  64  78 S5        29.81S
JOLIET*        CLOUDY    72  67  83 NE8       29.81S
WAUKEGAN       PTSUNNY   67  62  84 SE8       29.80S
DUPAGE AIRPORT CLOUDY    72  63  73 E6        29.80S
KANKAKEE*      CLOUDY    68  63  82 NE6       29.81S THUNDER
WHEELING       PTSUNNY   70  62  76 NE6       29.81S
MORRIS*        PTSUNNY   73  67  81 E7        29.77F
ROMEOVILLE*    LGT RAIN  67  65  96 E3        29.81F
NORTHERLY ISL    N/A     66  62  87 E3          N/A
$$

LMZ740>746-292200-
SOUTHERN LAKE MICHIGAN

STATION/POSITION SKY/WX   TEMP    WIND        PRES    VSBY  WAVE
                          AIR SEA DIR/SP/G                  HT/PER
                          (F)     (DEG/KT/KT) (MB)    (MI)  (FT/S)
HARRISON CRIB              65     140/  6/  7   N/A
BURNHAM HARBOR             66      CALM  /  4   N/A
CALUMET HARBOR             68      60/  5/  6   N/A
BURNS HARBOR               70     140/  2/  7 1010.2F
MICHIGAN CITY              68     310/  7/  8   N/A
MICHIGAN CITY 6N           67 66   10/  4/  4   N/A           0
ST. JOSEPH                 67 64                N/A           0
$$

ILZ025>027-034>036-040-047-049-050-058-095>099-292200-
WEST-CENTRAL ILLINOIS

CITY           SKY/WX    TMP DP  RH WIND       PRES   REMARKS
QUINCY         PTSUNNY   81  66  60 W10       29.84F HX  83
GALESBURG*     MOSUNNY   77  63  61 NW3       29.83F
MACOMB*        MOSUNNY   78  66  66 W3        29.85F HX  80
JACKSONVILLE*  MOSUNNY   80  68  65 W8        29.85F HX  83
PITTSFIELD*    SUNNY     81  66  60 W5        29.86F HX  83
$$

ILZ028>032-037-038-041>044-048-051>054-059>061-292200-
CENTRAL ILLINOIS

CITY           SKY/WX    TMP DP  RH WIND       PRES   REMARKS
PONTIAC        MOSUNNY   79  66  65 W12G20    29.80S HX  81
BLOOMINGTON    MOSUNNY   79  65  62 W14       29.83S HX  81
DECATUR        MOSUNNY   80  64  58 W14       29.83S HX  82
PEORIA         MOSUNNY   80  64  58 W12       29.82F HX  82
LACON*         MOSUNNY   77  63  61 W9        29.80F
LINCOLN*       MOSUNNY   80  63  56 W8        29.83S HX  81
SPRINGFIELD    MOSUNNY   79  66  64 NW9       29.85S HX  81
TAYLORVILLE    PTSUNNY   77  66  69 W10       29.85S
$$

ILZ033-039-045-046-055>057-062-063-292200-
EAST-CENTRAL ILLINOIS

CITY           SKY/WX    TMP DP  RH WIND       PRES   REMARKS
CHAMPAIGN      MOSUNNY   78  64  61 W12       29.81S HX  80
DANVILLE*      RAIN      76  67  73 NW5       29.78S
RANTOUL*       PTSUNNY   77  66  67 W8        29.80S
MATTOON        PTSUNNY   79  65  62 W16       29.82S HX  81
PARIS*         PTSUNNY   76  66  71 W9        29.81S
$$

ILZ079-100>102-292200-
SOUTHWEST ILLINOIS

CITY           SKY/WX    TMP DP  RH WIND       PRES   REMARKS
ALTON          MOSUNNY   79  72  78 NW7       29.87F HX  82
BELLEVILLE     SUNNY     82  68  61 NW14      29.86S HX  85
CAHOKIA*       PTSUNNY   84  64  50 NW9       29.86S HX  85
SPARTA*        MOSUNNY   83  65  53 NW7       29.88S HX  85
$$

ILZ064>066-069>071-074>076-080>082-084>086-088>090-092>094-292200-
SOUTH-CENTRAL ILLINOIS

CITY           SKY/WX    TMP DP  RH WIND       PRES   REMARKS
CARBONDALE     MOSUNNY   83  63  50 W10       29.86S HX  84
CAIRO*         SUNNY     89  65  44 NW7       29.84F HX  90
EFFINGHAM*     MOSUNNY   79  62  57 W10G20    29.85F HX  80
MARION         MOSUNNY   84  66  54 W12       29.87R HX  86
MT. VERNON     MOSUNNY   81  64  57 W6        29.87S HX  82
CENTRALIA*     MOSUNNY   79  64  59 W9        29.86F HX  81
SALEM*         MOSUNNY   82  64  55 W9        29.86S HX  83
METROPOLIS*    SUNNY     87  68  53 W7        29.85S HX  90
$$

ILZ067-068-072-073-078-083-087-091-292200-
SOUTHEAST ILLINOIS

CITY           SKY/WX    TMP DP  RH WIND       PRES   REMARKS
LAWRENCEVILLE  MOSUNNY   80  65  59 W14       29.83S HX  82
FLORA*         SUNNY     79  64  60 W14       29.85F HX  81
FAIRFIELD*     MOSUNNY   79  65  61 NW6       29.84S HX  81
HARRISBURG*    MOSUNNY   83  67  57 NW10      29.86S HX  85
ROBINSON*      MOSUNNY   78  65  63 W10       29.83S HX  80
CARMI*         MOSUNNY   81  60  48 NW10G17   29.84S HX  82
$$

ABBREVIATIONS USED IN REMARKS
   TC - TEMPERATURE IN CELSIUS
  WCI - WIND CHILL INDEX
   HX - HEAT INDEX
  VSB - VISIBILITY
$$



USA.gov is the U.S. government's official web portal to all federal, state and local government web resources and services.